This is the latest recevied weather packets stored in our database for station/object AA4XD. If no packets are shown the sender has not sent any weather packets the latest 10 day(s).
| Time | Temp. | Humidity | Pressure | Rain* | Wind** | Luminosity | Snow |
|---|---|---|---|---|---|---|---|
| 1777838672 | 27.22° C | 36% | 1015.6 hPa | 0 mm | - | 769 W/m² | - |
| 1777835332 | 26.67° C | 37% | 1016.4 hPa | 0 mm | - | 609 W/m² | - |
| 1777832609 | 25.56° C | 38% | 1017.2 hPa | 0 mm | - | 672 W/m² | - |
| 1777832305 | 25.56° C | 38% | 1017.4 hPa | 0 mm | - | 1007 W/m² | - |
| 1777832002 | 26.11° C | 39% | 1017.4 hPa | 0 mm | - | 1042 W/m² | - |
| 1777831397 | 25.56° C | 38% | 1017.4 hPa | 0 mm | - | 1043 W/m² | - |
| 1777830185 | 25.56° C | 38% | 1017.5 hPa | 0 mm | - | 1030 W/m² | - |
| 1777829880 | 25° C | 39% | 1017.7 hPa | 0 mm | - | 1031 W/m² | - |
| 1777829273 | 24.44° C | 42% | 1017.9 hPa | 0 mm | - | 1032 W/m² | - |
| 1777827151 | 24.44° C | 43% | 1018.3 hPa | 0 mm | - | 1009 W/m² | - |
| 1777826241 | 24.44° C | 46% | 1018.4 hPa | 0 mm | - | 1002 W/m² | - |
| 1777825635 | 23.89° C | 44% | 1018.6 hPa | 0 mm | - | 991 W/m² | - |
| 1777824726 | 23.33° C | 53% | 1018.7 hPa | 0 mm | - | 968 W/m² | - |
| 1777824424 | 23.33° C | 53% | 1018.7 hPa | 0 mm | - | 956 W/m² | - |
| 1777823210 | 22.78° C | 60% | 1018.9 hPa | 0 mm | - | 919 W/m² | - |
| 1777822606 | 21.67° C | 61% | 1018.7 hPa | 0 mm | - | 896 W/m² | - |
| 1777822303 | 21.67° C | 63% | 1018.7 hPa | 0 mm | - | 887 W/m² | - |
| 1777822001 | 21.67° C | 66% | 1018.6 hPa | 0 mm | - | 872 W/m² | - |
| 1777821698 | 22.22° C | 64% | 1018.5 hPa | 0 mm | - | 860 W/m² | - |
| 1777821396 | 21.67° C | 65% | 1018.5 hPa | 0 mm | - | 846 W/m² | - |
| 1777821092 | 21.11° C | 66% | 1018.6 hPa | 0 mm | - | 831 W/m² | - |
| 1777819880 | 21.67° C | 64% | 1018.4 hPa | 0 mm | - | 753 W/m² | - |
| 1777818668 | 20° C | 71% | 1018.6 hPa | 0 mm | - | 679 W/m² | - |
| 1777818061 | 19.44° C | 74% | 1018.4 hPa | 0 mm | - | 664 W/m² | - |
| 1777817758 | 19.44° C | 75% | 1018.5 hPa | 0 mm | - | 616 W/m² | - |
* Rain latest hour (hover to see other rain measurements)
** Current wind speed in m/s (hover to see current wind gust speed)